Powrót do katalogu

COSMOS 532

AktywnyMilitariaLEO
NORAD 6267·PAYLOAD·🇷🇺 Russia

Wystrzelony Nov 1, 1972 z Plesetsk Cosmodrome

Loading…

Następne Przeloty (najbliższe 24 godziny)

TLE

ŚwieżeSource: Space-Track

Epoka: Sep 13, 2026, 15:11 UTC

1 06267U 72087E   26256.63289284  .00000006  00000-0  10994-3 0  9990
2 06267  74.0383 334.9443 0108090   9.9087 104.2074 12.69744193496529

Śledź COSMOS 532 w czasie rzeczywistym z AllMySat

Download on the App Store